TimeMST,TemperatureF,Dew PointF,Humidity,Sea Level PressureIn,VisibilityMPH,Wind Direction,Wind SpeedMPH,Gust SpeedMPH,PrecipitationIn,Events,Conditions,WindDirDegrees,DateUTC
12:15 AM,27.5,24.3,88,29.72,10.0,ENE,3.5,-,N/A,,Overcast,60,2012-12-27 07:15:00
12:35 AM,27.5,24.3,88,29.72,10.0,NE,3.5,-,N/A,,Overcast,50,2012-12-27 07:35:00
12:55 AM,27.5,24.3,88,29.73,10.0,NE,4.6,-,N/A,,Overcast,50,2012-12-27 07:55:00
1:15 AM,27.5,24.4,88,29.73,10.0,ENE,4.6,-,N/A,,Overcast,60,2012-12-27 08:15:00
1:35 AM,27.1,24.3,89,29.73,10.0,NE,4.6,-,N/A,,Overcast,50,2012-12-27 08:35:00
1:55 AM,27.1,24.4,90,29.73,10.0,ENE,3.5,-,N/A,,Overcast,60,2012-12-27 08:55:00
2:15 AM,27.1,24.4,90,29.75,10.0,Calm,Calm,-,N/A,,Overcast,0,2012-12-27 09:15:00
2:35 AM,27.0,24.4,90,29.75,10.0,ENE,3.5,-,N/A,,Overcast,60,2012-12-27 09:35:00
2:55 AM,26.8,24.3,90,29.75,7.0,Calm,Calm,-,N/A,Snow,Light Snow,0,2012-12-27 09:55:00
3:35 AM,26.6,24.3,91,29.75,4.0,ENE,3.5,-,N/A,Snow,Light Snow,70,2012-12-27 10:35:00
3:55 AM,26.6,24.3,91,29.75,5.0,Calm,Calm,-,N/A,Snow,Light Snow,0,2012-12-27 10:55:00
4:15 AM,27.3,24.6,90,29.75,7.0,Calm,Calm,-,N/A,Snow,Light Snow,0,2012-12-27 11:15:00
4:35 AM,26.6,24.4,92,29.75,10.0,Calm,Calm,-,N/A,,Overcast,0,2012-12-27 11:35:00
4:55 AM,26.6,24.4,92,29.75,10.0,Calm,Calm,-,N/A,Snow,Light Snow,0,2012-12-27 11:55:00
5:15 AM,26.4,24.3,92,29.75,10.0,Calm,Calm,-,N/A,,Overcast,0,2012-12-27 12:15:00
5:35 AM,26.6,24.4,92,29.75,10.0,Calm,Calm,-,N/A,,Overcast,0,2012-12-27 12:35:00
5:55 AM,26.6,24.4,92,29.75,7.0,NE,3.5,-,N/A,Snow,Light Snow,50,2012-12-27 12:55:00
6:15 AM,26.4,24.3,92,29.75,10.0,Calm,Calm,-,N/A,,Overcast,0,2012-12-27 13:15:00
6:35 AM,26.4,24.1,91,29.76,10.0,Calm,Calm,-,N/A,,Overcast,0,2012-12-27 13:35:00
6:55 AM,26.2,24.4,93,29.76,5.0,Calm,Calm,-,N/A,Snow,Light Snow,0,2012-12-27 13:55:00
7:15 AM,26.1,24.3,93,29.76,4.0,SW,3.5,-,N/A,Snow,Light Snow,220,2012-12-27 14:15:00
7:55 AM,26.2,24.1,92,29.77,1.5,Calm,Calm,-,N/A,Snow,Light Snow,0,2012-12-27 14:55:00
8:15 AM,26.4,24.4,92,29.77,2.0,Calm,Calm,-,N/A,Snow,Light Snow,0,2012-12-27 15:15:00
8:55 AM,25.5,23.5,92,29.78,4.0,Calm,Calm,-,N/A,Snow,Light Snow,0,2012-12-27 15:55:00
9:15 AM,26.6,24.3,91,29.79,5.0,Calm,Calm,-,N/A,,Overcast,0,2012-12-27 16:15:00
9:35 AM,26.6,24.6,92,29.79,1.5,Calm,Calm,-,N/A,Snow,Light Snow,0,2012-12-27 16:35:00
9:55 AM,27.5,24.6,89,29.79,2.5,Calm,Calm,-,N/A,Snow,Light Snow,0,2012-12-27 16:55:00
10:15 AM,27.5,24.6,89,29.79,3.0,Calm,Calm,-,N/A,Snow,Light Snow,0,2012-12-27 17:15:00
10:35 AM,28.2,25.3,89,29.79,4.0,Calm,Calm,-,N/A,Rain,Freezing Rain,0,2012-12-27 17:35:00
10:55 AM,28.9,24.6,84,29.79,10.0,Calm,Calm,-,N/A,,Mostly Cloudy,0,2012-12-27 17:55:00
11:15 AM,29.8,24.6,81,29.78,10.0,Calm,Calm,-,N/A,,Scattered Clouds,0,2012-12-27 18:15:00
11:35 AM,30.4,25.3,82,29.77,10.0,Calm,Calm,-,N/A,,Mostly Cloudy,0,2012-12-27 18:35:00
11:55 AM,32.0,26.2,79,29.76,10.0,East,4.6,-,N/A,,Overcast,100,2012-12-27 18:55:00
12:15 PM,32.0,26.8,81,29.75,10.0,SE,4.6,-,N/A,,Overcast,130,2012-12-27 19:15:00
12:35 PM,32.0,26.4,80,29.75,10.0,SSE,3.5,-,N/A,,Overcast,160,2012-12-27 19:35:00
12:55 PM,32.5,25.9,76,29.74,10.0,SW,8.1,-,N/A,,Overcast,220,2012-12-27 19:55:00
1:15 PM,33.1,25.7,74,29.73,10.0,SSW,8.1,-,N/A,,Overcast,210,2012-12-27 20:15:00
1:35 PM,33.8,25.9,73,29.73,10.0,SW,9.2,-,N/A,,Overcast,230,2012-12-27 20:35:00
1:55 PM,32.9,26.6,78,29.73,7.0,SW,12.7,-,N/A,,Overcast,230,2012-12-27 20:55:00
2:15 PM,32.9,26.6,78,29.74,5.0,WSW,10.4,-,N/A,,Haze,240,2012-12-27 21:15:00
2:35 PM,32.4,26.1,78,29.74,4.0,SW,11.5,-,N/A,Snow,Light Snow,230,2012-12-27 21:35:00
2:55 PM,31.6,26.1,80,29.75,10.0,SW,11.5,-,N/A,,Overcast,230,2012-12-27 21:55:00
3:15 PM,31.3,26.2,82,29.75,10.0,SW,10.4,-,N/A,,Overcast,230,2012-12-27 22:15:00
3:35 PM,30.7,25.7,82,29.76,10.0,SW,11.5,-,N/A,,Overcast,220,2012-12-27 22:35:00
3:55 PM,31.1,26.2,82,29.76,10.0,WSW,10.4,-,N/A,,Overcast,240,2012-12-27 22:55:00
4:15 PM,30.9,26.1,82,29.76,10.0,SW,11.5,-,N/A,,Overcast,220,2012-12-27 23:15:00
4:35 PM,31.1,25.9,81,29.76,10.0,SW,10.4,-,N/A,,Overcast,220,2012-12-27 23:35:00
4:55 PM,32.0,25.0,75,29.77,10.0,West,9.2,-,N/A,,Overcast,260,2012-12-27 23:55:00
5:15 PM,31.1,24.6,77,29.78,10.0,Calm,Calm,-,N/A,,Overcast,0,2012-12-28 00:15:00
5:35 PM,30.4,25.9,83,29.79,10.0,North,5.8,-,N/A,,Overcast,350,2012-12-28 00:35:00
5:55 PM,29.8,25.7,85,29.80,10.0,Calm,Calm,-,N/A,,Overcast,0,2012-12-28 00:55:00
6:15 PM,29.7,25.5,85,29.81,10.0,Calm,Calm,-,N/A,,Overcast,0,2012-12-28 01:15:00
6:35 PM,29.3,25.5,86,29.82,10.0,Calm,Calm,-,N/A,,Overcast,0,2012-12-28 01:35:00
6:55 PM,29.3,25.5,86,29.83,10.0,Calm,Calm,-,N/A,,Overcast,0,2012-12-28 01:55:00
7:15 PM,28.4,24.3,84,29.83,10.0,South,4.6,-,N/A,,Overcast,190,2012-12-28 02:15:00
7:35 PM,27.3,23.9,87,29.84,10.0,Calm,Calm,-,N/A,,Overcast,0,2012-12-28 02:35:00
7:55 PM,27.5,23.9,86,29.84,10.0,South,3.5,-,N/A,,Overcast,190,2012-12-28 02:55:00
8:15 PM,27.5,23.7,86,29.85,10.0,Calm,Calm,-,N/A,,Overcast,0,2012-12-28 03:15:00
8:35 PM,27.5,23.9,86,29.86,10.0,Calm,Calm,-,N/A,,Overcast,0,2012-12-28 03:35:00
8:55 PM,27.3,24.3,88,29.86,10.0,Calm,Calm,-,N/A,,Overcast,0,2012-12-28 03:55:00
9:15 PM,27.1,24.4,90,29.86,10.0,East,3.5,-,N/A,,Overcast,90,2012-12-28 04:15:00
9:35 PM,27.1,24.3,89,29.87,10.0,NNE,4.6,-,N/A,,Overcast,30,2012-12-28 04:35:00
9:55 PM,27.3,24.6,90,29.88,10.0,NNE,3.5,-,N/A,,Overcast,20,2012-12-28 04:55:00
10:15 PM,27.5,24.8,90,29.89,10.0,SW,3.5,-,N/A,,Overcast,230,2012-12-28 05:15:00
10:35 PM,27.5,24.4,88,29.90,7.0,Calm,Calm,-,N/A,Snow,Light Snow,0,2012-12-28 05:35:00
10:55 PM,27.9,24.4,87,29.90,10.0,Calm,Calm,-,N/A,,Overcast,0,2012-12-28 05:55:00
11:15 PM,27.5,24.4,88,29.91,10.0,Calm,Calm,-,N/A,,Overcast,0,2012-12-28 06:15:00
11:35 PM,27.3,23.9,87,29.92,10.0,Calm,Calm,-,N/A,,Overcast,0,2012-12-28 06:35:00
11:55 PM,27.3,24.3,88,29.92,10.0,Calm,Calm,-,N/A,,Overcast,0,2012-12-28 06:55:00